Regional Weather Roundup
Issued by NWS

Home | Current Version | Previous Version | Text Only | Print | Product List | Glossary Off
Versions: 1 2 3 4 5 6 7 8 9 10 11 12 13 14 15 16 17 18 19 20 21 22 23 24 25 26 27 28 29 30 31 32 33 34 35 36 37 38 39 40 41 42 43 44 45 46 47 48 49 50

000
ASUS43 KMPX 250010
RWRMN
WEATHER ROUNDUP FOR MINNESOTA
NATIONAL WEATHER SERVICE TWIN CITIES/CHANHASSEN MN
700 PM CDT MON APR 24 2017


NOTE: "FAIR" INDICATES FEW OR NO CLOUDS BELOW 12,000 FEET WITH NO
SIGNIFICANT WEATHER AND/OR OBSTRUCTIONS TO VISIBILITY. N/A MEANS
CURRENT SKY AND/OR WEATHER CONDITIONS ARE NOT AVAILABLE.

MNZ060>063-068>070-250100-
   Twin Cities Metro

CITY           SKY/WX    TMP DP  RH WIND       PRES   REMARKS
TWIN CITIES    CLOUDY    67  34  29 S12       29.57F
6HR MIN TEMP:  67; 6HR MAX TEMP:  72;

ST PAUL        CLOUDY    66  34  30 S13       29.58F
CRYSTAL        CLOUDY    67  29  24 S15G25    29.55F
BLAINE         CLOUDY    68  32  26 SE7       29.57F
LAKEVILLE      CLOUDY    66  34  30 S22G35    29.58F
EDEN PRAIRIE   CLOUDY    67  33  28 SE15      29.55F
6HR MIN TEMP:  67; 6HR MAX TEMP:  74;

SOUTH ST PAUL  CLOUDY    66  33  28 S8        29.58F
LAKE ELMO      CLOUDY    66  34  30 S21G31    29.61R
$$
MNZ001>005-007-008-013>017-022>024-027-028-250100-
   Northwest Minnesota

CITY           SKY/WX    TMP DP  RH WIND       PRES   REMARKS
BEMIDJI        LGT RAIN  42  41  97 E7        29.57R
HALLOCK        CLOUDY    34  32  93 NE15      29.69R WCI  24
ROSEAU         FLURRIES  34  28  80 NE16G24   29.66F WCI  23
WARROAD        LGT SNOW  34  28  80 NE20G26   29.68F WCI  22
THIEF RVR FALL LGT RAIN  36  34  92 NE16      29.60S
CROOKSTON      CLOUDY    37  36  93 NE14G20   29.60S
FOSSTON        CLOUDY    39  39 100 NE8       29.55F
DETROIT LAKES  LGT RAIN  50  46  87 SE3       29.54R
MOORHEAD       CLOUDY    43  41  93 N16       29.55R
PARK RAPIDS    LGT RAIN  50  46  86 N5        29.54F FOG
MAHNOMEN       CLOUDY    46  45  95 E7        29.53S
$$
MNZ006-009>011-018-025>026-250100-
   North Central Minnesota

CITY           SKY/WX    TMP DP  RH WIND       PRES   REMARKS
BAUDETTE       LGT RAIN  34  32  92 NE12      29.64F WCI  25
FLAG ISLAND    DRIZZLE   30  28  93 NE12G20   29.71S WCI  21
INTL FALLS     RAIN      37  34  89 E15       29.67F FOG
6HR MIN TEMP:  37; 6HR MAX TEMP:  40; 6HR PCP:  0.38;

WASKISH        RAIN      39  37  93 E12       29.61S
BIG FORK       LGT RAIN  43  36  75 E7        29.62R
LONGVILLE      LGT RAIN  45  41  87 E6        29.59R
GRAND RAPIDS   CLOUDY    44  32  62 SE10      29.64R
CRANE LAKE     DRIZZLE   36  36 100 CALM      29.71F
ORR            CLOUDY    37  30  75 E5        29.64R
COOK           CLOUDY    39  30  70 E7        29.65S
WALKER         RAIN      49  46  87 S3        29.57R
$$
MNZ012-019>021-037-250100-
   Northeast Minnesota

CITY           SKY/WX    TMP DP  RH WIND       PRES   REMARKS
DULUTH         CLOUDY    37  32  82 E18G26    29.66S
6HR MIN TEMP:  36; 6HR MAX TEMP:  40;

ELY            CLOUDY    37  28  70 E14       29.68R
HIBBING        CLOUDY    40  30  67 E10       29.63S
EVELETH        CLOUDY    40  28  60 E8        29.65S
DULUTH HARBOR  CLOUDY    37  36  93 NE24G35   29.70F
TWO HARBORS    CLOUDY    39  34  81 NE12G28   29.67F
SILVER BAY     CLOUDY    36  32  87 NE15G28   29.69F
GRAND MARAIS     N/A     40  31  70 NE21G31   29.75F
G MARAIS ARPRT CLOUDY    34  27  75 NE14G24   29.74F WCI  24
$$
MNZ029>031-032-039>041-046>048-054>057-064-250100-
   West Central Minnesota

CITY           SKY/WX    TMP DP  RH WIND       PRES   REMARKS
FERGUS FALLS   CLOUDY    52  48  87 CALM      29.51S
WHEATON        CLOUDY    50  45  81 NW12G17   29.53S
MORRIS         CLOUDY    64  43  45 S12G17    29.48S
ALEXANDRIA     CLOUDY    61  40  45 S10       29.51F
ELBOW LAKE     LGT RAIN  52  48  87 N9        29.51R
WADENA         LGT RAIN  52  46  82 CALM      29.53R
GLENWOOD       CLOUDY    63  43  48 S8        29.51F
APPLETON       CLOUDY    64  39  39 S9        29.48F
BENSON         LGT RAIN  63  43  48 SW9       29.52S
ORTONVILLE     CLOUDY    54  46  76 N12G20    29.50R
MADISON        PTSUNNY   68  43  40 S10       29.48S
WILLMAR        PTSUNNY   64  41  42 SE6       29.53F
$$
MNZ033>034-036-042>043-049>051-058-059-250100-
   Central Minnesota

CITY           SKY/WX    TMP DP  RH WIND       PRES   REMARKS
ST CLOUD       CLOUDY    60  41  49 SE8       29.54F
6HR MIN TEMP:  60; 6HR MAX TEMP:  69; 6HR PCP: TRACE;

SAUK CENTRE    CLOUDY    59  40  49 SE7       29.53F
PAYNESVILLE    CLOUDY    63  34  34 SE5       29.54F
AITKIN         MIX PCPN  48  37  66 NE12      29.58R
PINE RIVER     LGT RAIN  52  45  76 SE8       29.60F
BRAINERD       CLOUDY    55  43  63 SE5       29.56S
STAPLES        LGT RAIN  52  45  76 CALM      29.53F
LONG PRAIRIE   CLOUDY    55  41  58 SE7       29.53F
LITTLE FALLS   CLOUDY    61  34  36 S9        29.55F
LITCHFIELD     CLOUDY    64  43  45 CALM      29.54F
BUFFALO        CLOUDY    62  37  39 SE7       29.55F
MAPLE LAKE     CLOUDY    62  44  51 SE5       29.55F
HUTCHINSON     CLOUDY    66  39  37 S6        29.54F
$$
MNZ037-044-045-052-053-250100-
   East Central Minnesota

CITY           SKY/WX    TMP DP  RH WIND       PRES   REMARKS
PRINCETON      CLOUDY    61  39  44 E3        29.56F
MORA           LGT RAIN  55  37  50 E3        29.58F
CAMBRIDGE      CLOUDY    64  43  45 E3        29.55F
RUSH CITY      LGT RAIN  63  33  33 CALM      29.58F
MOOSE LAKE     DRIZZLE   41  34  75 NE6       29.62S
HINCKLEY       LGT RAIN  61  39  44 SW7       29.60S
CLOQUET        CLOUDY    37  30  75 E9G20     29.66R
MCGREGOR       CLOUDY    43  34  70 E9        29.63S
$$
MNZ071>073-080-081-089-090-097-098-250100-
   Southwest Minnesota

CITY           SKY/WX    TMP DP  RH WIND       PRES   REMARKS
MONTEVIDEO     DRIZZLE   64  39  39 SW7       29.49F
GRANITE FALLS  LGT RAIN  66  42  42 SE5       29.51F
CANBY          CLOUDY    66  43  43 NW18      29.50R
MARSHALL       PTSUNNY   66  40  38 S8        29.49F
REDWOOD FALLS  CLOUDY    67  37  33 S12       29.51S
OLIVIA         CLOUDY    63  39  42 CALM      29.52S
PIPESTONE      CLOUDY    64  37  36 SW3       29.49F
WINDOM         CLOUDY    66  34  30 S10G16    29.53S
WORTHINGTON    LGT RAIN  63  41  44 S7        29.53S
JACKSON        CLOUDY    64  34  32 S5        29.54F
TRACY          CLOUDY    67  40  37 S10       29.50F
SLAYTON        CLOUDY    64  39  39 S15G21    29.52S
$$
MNZ065>067-074>077-082>085-091>093-250100-
   South Central Minnesota

CITY           SKY/WX    TMP DP  RH WIND       PRES   REMARKS
MANKATO        CLOUDY    68  30  24 S13G21    29.56S
NEW ULM        CLOUDY    68  32  26 S14       29.53S
ST JAMES       CLOUDY    68  34  28 S12       29.55S
FAIRMONT       CLOUDY    67  34  29 S10       29.55S
GLENCOE        CLOUDY    69  37  31 S6        29.54S
FARIBAULT      CLOUDY    66  34  30 S6        29.59F
OWATONNA       CLOUDY    66  28  24 S13       29.58F
WASECA         CLOUDY    63  32  31 S12       29.59S
ALBERT LEA     CLOUDY    64  27  24 S9        29.57F
$$
MNZ078>079-086>088-094>096-250100-
   Southeast Minnesota

CITY           SKY/WX    TMP DP  RH WIND       PRES   REMARKS
ROCHESTER      CLOUDY    64  31  28 S13       29.62F
6HR MIN TEMP:  64; 6HR MAX TEMP:  70;

RED WING       CLOUDY    68  27  21 SE9       29.60F
STANTON        LGT RAIN  67  33  28 SW12G23   29.58F
DODGE CENTER   CLOUDY    64  30  27 S15G25    29.61S
WINONA         MOCLDY    68  34  28 SE7       29.63F
AUSTIN         CLOUDY    64  28  25 S7        29.59F
PRESTON        CLOUDY    64  29  26 SE9       29.63F
$$
ABBREVIATIONS USED IN REMARKS
   TC - TEMPERATURES IN CELSIUS
  WCI - WIND CHILL INDEX
   HX - HEAT INDEX
  VSB - VISIBILITY
$$




USA.gov is the U.S. government's official web portal to all federal, state and local government web resources and services.